Location: *
(51.3833°N, 0.5167°E)
Time: 12:01:21
(UTC+00:00)

Daily predictions for brighter satellites

Satellite Brightness Start Highest point End
(mag) Time Altitude Azimuth Time Altitude Azimuth Time Altitude Azimuth
Cosmos 1452 Rocket 3.5 20:54:31 10° S 20:59:42 66° ESE 21:04:56 10° NNE
Cosmos 1833 Rocket 3.0 20:54:37 10° S 20:59:55 45° ESE 21:05:15 10° NE
Cosmos 724 4.4 20:54:19 10° SW 21:00:08 86° NW 21:05:58 10° NE
CZ-4B R/B 1.4 20:58:20 10° N 21:01:13 65° WNW 21:04:04 10° SSW
Terra 2.3 20:57:13 10° SE 21:01:47 48° ENE 21:06:22 10° N
FALCON 9 DEB 3.3 21:01:36 10° WNW 21:04:52 70° N 21:08:07 10° E
Cosmos 1110 Rocket 4.3 21:00:41 10° S 21:05:44 49° ESE 21:10:52 10° NNE
Helios 1A Rocket 3.1 21:01:46 10° SSE 21:05:49 65° ENE 21:09:55 10° N
Cosmos 2322 Rocket 4.3 21:02:48 10° NNW 21:06:52 20° NNE 21:10:56 10° E
ERS-1 Rocket 3.1 21:03:19 10° SSE 21:08:19 68° ENE 21:13:20 10° N
Resurs 01 Rocket 3.2 21:04:55 10° SSW 21:08:56 33° W 21:12:59 10° NNW
Cosmos 2228 3.0 21:06:10 10° N 21:10:25 76° ENE 21:14:40 10° SSE
Cosmos 2058 Rocket 4.4 21:07:24 10° N 21:11:12 27° ENE 21:15:01 10° SE
Cosmos 2184 Rocket 4.1 21:08:06 10° N 21:14:19 86° W 21:20:32 10° S
Lacrosse 5 4.0 21:13:30 10° W 21:16:34 16° WSW 21:19:38 10° SSW
IRAS Rocket 4.3 21:12:45 10° NNE 21:18:24 88° WNW 21:23:57 10° SSW
Cosmos 1408 4.2 21:16:21 10° SE 21:18:42 17° E 21:21:04 10° NE
Cosmos 968 Rocket 3.8 21:16:22 10° NNW 21:21:32 58° ENE 21:26:36 10° SE
Cosmos 1328 4.3 21:22:28 10° SSE 21:26:18 44° E 21:30:07 10° NNE
USA 276 1.9 21:23:53 10° W 21:26:54 69° S 21:29:56 10° E
Cosmos 2360 4.5 21:24:27 10° NW 21:30:09 67° WSW 21:35:49 10° SSE
H-2A R/B 4.1 21:26:13 10° N 21:30:10 32° WNW 21:34:10 10° SW
SJ 16-02 3.7 21:27:54 10° N 21:30:28 15° NE 21:33:01 10° E
Cosmos 1867 3.7 21:25:44 10° NW 21:31:14 77° NE 21:36:30 11° SE
Cosmos 1455 4.5 21:28:38 10° NW 21:31:38 22° W 21:34:37 10° SW
Cosmos 2082 Rocket 2.8 21:28:37 10° S 21:33:47 37° ESE 21:38:58 10° NE
USA 245 4.4 21:31:29 10° SSW 21:35:12 36° W 21:38:16 10° NNW
Cosmos 1536 Rocket 4.3 21:31:53 10° SSW 21:36:08 54° WNW 21:40:26 10° N
USA 267 4.2 21:31:43 10° ENE 21:36:49 24° SE 21:41:55 10° S
Cosmos 1606 Rocket 3.6 21:34:48 10° NNW 21:39:09 85° W 21:43:23 11° S
ARIANE 5 R/B 2.7 21:35:43 11° SSE 21:39:54 77° ENE 21:44:21 10° NNW
GP-B 4.0 21:36:06 10° NNE 21:40:09 33° E 21:43:35 13° SE
Cosmos 2341 Rocket 4.3 21:35:07 10° N 21:41:23 59° ENE 21:47:01 13° SSE
Cosmos 2360 Rocket 4.2 21:38:38 10° NNW 21:43:01 22° NE 21:47:22 10° E
Meteor 1-21 Rocket 4.3 21:38:55 10° S 21:44:32 89° ESE 21:50:18 10° NNE
Cosmos 192 4.4 21:44:08 10° S 21:48:55 57° ESE 21:53:44 10° NNE
Cosmos 1726 Rocket 3.8 21:57:33 10° NNW 22:01:51 66° W 22:05:41 13° S
Cosmos 1892 3.0 22:02:06 17° SSE 22:04:47 49° E 22:08:28 10° NNE
Nadezhda 1 Rocket 4.3 22:05:17 10° SSW 22:11:18 64° WNW 22:17:22 10° N
Cosmos 2181 Rocket 4.3 22:07:22 15° SSE 22:12:25 54° E 22:18:30 10° NNE
USA 234 3.5 22:06:55 10° ESE 22:13:28 75° NNE 22:20:02 10° WNW
Cosmos 1633 4.3 22:12:09 14° ESE 22:13:35 18° E 22:15:59 10° NE
Cosmos 1697 Rocket 4.0 22:11:31 10° NW 22:16:23 31° WSW 22:21:14 10° SSW
Cosmos 1980 Rocket 2.6 22:10:51 10° NW 22:16:26 57° WSW 22:20:52 16° S
SL-16 R/B 2.8 22:10:55 10° NNW 22:16:30 52° NE 22:21:23 13° SE
Cosmos 1486 Rocket 4.1 22:11:52 10° NNW 22:17:07 75° ENE 22:21:05 18° SSE
X-37B 2.8 22:18:04 10° SW 22:18:13 10° SW 22:18:13 10° SW
Cosmos 1992 Rocket 4.5 22:15:19 16° S 22:19:10 44° ESE 22:24:07 10° NE
Cosmos 2369 4.3 22:14:30 10° NW 22:20:01 48° WSW 22:24:30 15° S
Cosmos 2219 Rocket 4.4 22:15:52 10° NNW 22:20:02 20° NE 22:24:12 10° E
TIMED 4.5 22:21:54 13° SSW 22:25:49 72° ESE 22:30:11 10° NNE
COSMOS 2406 3.5 22:22:06 10° SW 22:27:52 75° WNW 22:33:39 10° NNE
Cosmos-2242 4.0 22:24:34 10° N 22:28:30 35° ENE 22:31:12 17° SE
ATLAS 5 CENTAUR R/B 1.8 22:29:23 20° S 22:31:29 38° ESE 22:35:23 10° NE
Cosmos 1869 3.2 22:28:51 10° N 22:32:46 80° ENE 22:35:09 23° SSE
Cosmos 1602 Rocket 4.3 22:32:11 21° SSE 22:34:34 38° E 22:38:35 10° NNE
In-Cosmos 22 Rocket 4.1 22:30:23 16° S 22:34:54 75° E 22:40:19 10° NNE
ERS-2 4.5 22:36:03 10° E 22:36:40 10° E 22:37:15 10° E
Meteor 1-27 4.2 22:32:56 10° NNW 22:38:33 83° WSW 22:42:35 19° S
Terra 3.5 22:35:47 10° SSW 22:39:46 26° W 22:43:46 10° NW
FALCON 9 DEB 3.4 22:37:55 10° WNW 22:41:04 44° SSW 22:42:17 29° SSE
ASTEX 1 3.6 22:36:39 10° N 22:41:40 71° W 22:45:50 15° SSW
ALOS 2 3.3 22:39:48 18° SE 22:42:43 44° ENE 22:46:54 10° N
Cosmos 1833 Rocket 4.1 22:38:40 10° WSW 22:43:56 40° NW 22:49:15 10° NNE
Cosmos 1354 Rocket 4.2 22:40:01 10° NNW 22:45:21 66° ENE 22:49:06 19° SE
BREEZE-M DEB (TANK) 3.4 22:44:35 10° W 22:47:31 69° S 22:57:45 10° ESE
SL-8 Rocket 4.3 22:41:59 10° NNW 22:48:07 61° W 22:53:01 16° S
Cosmos 2058 Rocket 4.1 22:45:11 10° NNW 22:49:18 38° W 22:52:35 15° SSW
ADEOS Rocket 3.8 22:45:42 17° SE 22:51:37 66° ENE 22:59:19 10° NNW
Cosmos 1825 2.1 22:49:40 22° SSW 22:51:58 86° WNW 22:55:44 10° N
Cosmos 2322 Rocket 2.5 22:46:22 10° NNW 22:52:02 66° ENE 22:56:24 17° SE
Cosmos 1408 3.7 22:50:12 12° SW 22:53:07 36° WNW 22:56:21 10° N
Cosmos 1503 Rocket 4.0 22:49:48 10° NNW 22:55:09 90° W 22:58:35 22° SSE
Cosmos 1626 Rocket 3.5 22:54:43 21° S 22:57:35 88° W 23:01:58 10° N
USA 276 2.4 22:59:37 10° W 23:02:28 39° SSW 23:02:50 37° S
Cosmos 2278 4.4 22:57:18 10° NW 23:02:41 43° WSW 23:06:17 20° S
Cosmos 1777 Rocket 4.3 22:57:53 10° NNW 23:03:09 62° ENE 23:06:53 19° SE
Cosmos 2333 Rocket 3.3 23:01:41 10° NNW 23:07:09 41° NE 23:12:36 10° ESE
SJ 16-02 1.4 23:05:19 10° NNW 23:09:47 81° ENE 23:12:19 25° SSE
Cosmos 1825 Rocket 4.3 23:08:17 24° SE 23:10:21 39° E 23:14:24 10° NNE
Gbstr 26 Del rocket 4.3 23:11:08 22° SE 23:11:21 22° SE 23:15:09 10° E
Cosmos 1340 Rocket 4.1 23:13:04 21° SE 23:14:36 27° E 23:17:57 10° NE
Cosmos 2082 Rocket 3.1 23:12:15 10° SW 23:17:46 48° NW 23:23:18 10° NNE
Meteor 2-20 4.4 23:13:53 21° S 23:18:04 79° E 23:24:11 10° NNE
H-2A R/B 3.6 23:14:39 10° NNE 23:18:50 62° ESE 23:20:55 28° S
USA 267 3.2 23:14:08 10° ENE 23:20:39 68° SE 23:27:11 10° SW
Cosmos 2221 3.6 23:21:35 10° N 23:25:38 36° ENE 23:28:17 18° SE
Cosmos 1606 2.6 23:22:37 10° NNW 23:26:31 85° W 23:28:16 31° S
Cosmos 2360 Rocket 2.3 23:22:14 10° NNW 23:27:57 78° ENE 23:32:00 20° SE
Cosmos 2058 3.2 23:26:08 28° SSE 23:28:04 53° E 23:32:11 10° NNE
Cosmos 1934 Rocket 4.1 23:22:53 10° N 23:28:58 66° ENE 23:33:06 21° SSE
Spot 4 4.4 23:27:39 23° SSW 23:30:23 48° W 23:35:03 10° NNW
Meteor 2-2 Rocket 4.4 23:34:40 10° NNW 23:40:43 88° ENE 23:44:36 24° SSE
Cosmos 44 4.1 23:41:21 25° SSE 23:42:43 30° ESE 23:46:38 10° ENE
Cosmos 2237 4.4 23:37:56 10° NW 23:43:35 59° WSW 23:46:53 25° S
Meteor 2-20 Rocket 4.4 23:42:26 23° S 23:46:30 89° W 23:52:39 10° N
Cosmos 1633 3.6 23:45:55 20° SW 23:47:49 36° WNW 23:51:04 10° N
Cosmos 1758 Rocket 4.0 23:45:44 22° SSW 23:48:23 54° WNW 23:52:44 10° N
Cosmos 2237 Rocket 4.3 23:47:28 10° NNW 23:52:04 24° NE 23:56:37 10° E
COSMOS 2428 3.6 23:48:26 10° NNW 23:53:57 46° NE 23:59:26 10° SE
